User: anonymous   Login
Location: *
(33.8649°S, 62.1526°E)
Time: 08:00:55
(UTC+00:00)
Language:

Cosmos 1697 Rocket - Orbit

View from above orbital plane
View from above orbital plane
View from above satellite
View from above satellite

Ground track
Ground track

The orbit data is extracted from the following two-line orbital elements,

1 16182U 85097B   21103.07831816  .00000005  00000-0  26724-4 0  9998
2 16182  71.0007 311.0749 0005532 114.7831  13.2047 14.16252575833852
Epoch (UTC): 13 April 2021 01:52:46
Eccentricity: 0.0005532
inclination: 71.0007°
perigee height: 834 km
apogee height: 842 km
right ascension of ascending node: 311.0749°
argument of perigee: 114.7831°
revolutions per day: 14.16252575
mean anomaly at epoch: 13.2047°
orbit number at epoch: 83385

The dashed part of the orbit path shows where the satellite is in the earth's shadow,  

DLR